TimeCDT,TemperatureF,Dew PointF,Humidity,Sea Level PressureIn,VisibilityMPH,Wind Direction,Wind SpeedMPH,Gust SpeedMPH,PrecipitationIn,Events,Conditions,WindDirDegrees,DateUTC
12:53 AM,79.0,71.1,77,29.98,10.0,South,4.6,-,N/A,,Clear,170,2013-08-03 05:53:00
1:53 AM,73.9,71.1,91,29.98,9.0,SSW,3.5,-,N/A,,Clear,200,2013-08-03 06:53:00
2:53 AM,73.9,71.1,91,29.97,8.0,Calm,Calm,-,N/A,,Clear,0,2013-08-03 07:53:00
3:53 AM,73.0,71.1,93,29.96,7.0,Calm,Calm,-,N/A,,Clear,0,2013-08-03 08:53:00
4:53 AM,73.0,71.1,93,29.96,7.0,South,3.5,-,N/A,,Clear,180,2013-08-03 09:53:00
5:53 AM,73.0,71.1,93,29.96,6.0,South,3.5,-,N/A,,Clear,180,2013-08-03 10:53:00
6:53 AM,73.0,72.0,96,29.98,5.0,Calm,Calm,-,N/A,,Clear,0,2013-08-03 11:53:00
7:53 AM,77.0,73.9,90,30.01,5.0,SSW,5.8,-,N/A,,Clear,210,2013-08-03 12:53:00
8:53 AM,80.1,75.0,85,30.03,7.0,SW,5.8,-,N/A,,Clear,220,2013-08-03 13:53:00
9:53 AM,84.0,75.9,76,30.04,9.0,WSW,3.5,-,N/A,,Clear,250,2013-08-03 14:53:00
10:53 AM,86.0,77.0,74,30.04,9.0,WSW,5.8,-,N/A,,Clear,250,2013-08-03 15:53:00
11:53 AM,89.1,77.0,67,30.03,10.0,Variable,4.6,-,N/A,,Clear,0,2013-08-03 16:53:00
12:53 PM,88.0,77.0,70,30.04,9.0,NW,4.6,-,N/A,,Mostly Cloudy,310,2013-08-03 17:53:00
1:53 PM,90.0,73.9,59,30.03,10.0,NNW,4.6,-,N/A,,Partly Cloudy,330,2013-08-03 18:53:00
2:53 PM,91.9,75.0,58,30.01,10.0,Calm,Calm,-,N/A,,Scattered Clouds,0,2013-08-03 19:53:00
3:53 PM,91.9,75.0,58,29.99,10.0,Calm,Calm,-,N/A,,Partly Cloudy,0,2013-08-03 20:53:00
4:53 PM,91.9,73.9,55,29.98,10.0,Calm,Calm,-,N/A,,Partly Cloudy,0,2013-08-03 21:53:00
5:53 PM,91.9,75.0,58,29.97,10.0,Calm,Calm,-,N/A,,Clear,0,2013-08-03 22:53:00
6:53 PM,89.1,75.9,65,29.98,9.0,Calm,Calm,-,N/A,,Partly Cloudy,0,2013-08-03 23:53:00
7:53 PM,86.0,75.9,72,30.00,8.0,Calm,Calm,-,N/A,,Partly Cloudy,0,2013-08-04 00:53:00
8:53 PM,81.0,77.0,88,30.01,9.0,Calm,Calm,-,N/A,,Clear,0,2013-08-04 01:53:00
9:53 PM,79.0,75.9,90,30.03,6.0,Calm,Calm,-,N/A,,Clear,0,2013-08-04 02:53:00
10:53 PM,78.1,75.0,90,30.04,4.0,Calm,Calm,-,N/A,,Clear,0,2013-08-04 03:53:00
11:53 PM,77.0,75.9,96,30.04,4.0,Calm,Calm,-,N/A,,Clear,0,2013-08-04 04:53:00